Weather History for Algona, IA

Change the Weather History Date:

Thursday, November 1, 2012

  Actual Average Record
Temperature  
Mean Temperature 39 °F -  
Max Temperature 48 °F 49 °F 69 °F (2001)
Min Temperature 30 °F 32 °F 15 °F (1996)
Degree Days  
Heating Degree Days 26    
Moisture  
Dew Point 32 °F    
Average Humidity 69    
Maximum Humidity 87    
Minimum Humidity 50    
Precipitation  
Precipitation 0.00 in - - ()
Sea Level Pressure  
Sea Level Pressure 29.97 in    
Wind  
Wind Speed 10 mph (NNW)    
Max Wind Speed 21 mph    
Max Gust Speed 26 mph    
Visibility 9 miles    
Events      
Averages and records for this station are not official NWS values.
T = Trace of Precipitation, MM = Missing Value Source: NWS Daily Summary

Daily Weather History Graph

Daily Weather History Graph

Search for Another Location

Airport:

Trip Planner

Search our weather history database for the weather conditions in past years. The results will help you decide how hot, cold, wet, or windy it might be!

Date:

Astronomy

Nov. 01, 2012 Rise Set
Actual Time 7:52 AM CDT 6:08 PM CDT
Civil Twilight 7:22 AM CDT 6:37 PM CDT
Nautical Twilight 6:49 AM CDT 7:11 PM CDT
Astronomical Twilight 6:16 AM CDT 7:44 PM CDT
Moon 8:02 PM CDT (11/1) 10:28 AM CDT (11/1)
Length of Visible Light 11h 15m
Length of Day
10h 15m
Waning Gibbous, 93% of the Moon is Illuminated
Nov 1
Waning Gibbous
Nov 6
Last Quarter
Nov 13
New
Nov 20
First Quarter
Nov 28
Full

Hourly Weather History & Observations

Time (CDT) Temp. Windchill Dew Point Humidity Pressure Visibility Wind Dir Wind Speed Gust Speed Precip Events Conditions
12:15 AM 41.0 °F 36.4 °F 32.0 °F 70% 29.94 in 10.0 mi SW 6.9 mph - N/A   Mostly Cloudy
12:35 AM 39.2 °F 35.9 °F 30.2 °F 70% 29.94 in 2.0 mi SW 4.6 mph - N/A   Haze
12:55 AM 39.2 °F 34.2 °F 32.0 °F 75% 29.94 in 8.0 mi SW 6.9 mph - N/A   Mostly Cloudy
1:15 AM 39.2 °F 33.6 °F 32.0 °F 75% 29.94 in 5.0 mi SW 8.1 mph - N/A   Haze
1:35 AM 41.0 °F 35.8 °F 32.0 °F 70% 29.93 in 10.0 mi SW 8.1 mph - N/A   Overcast
1:55 AM 41.0 °F 36.4 °F 32.0 °F 70% 29.94 in 10.0 mi WSW 6.9 mph - N/A   Overcast
2:15 AM 42.8 °F 38.0 °F 33.8 °F 70% 29.94 in 10.0 mi WSW 8.1 mph - N/A   Overcast
2:35 AM 42.8 °F 38.6 °F 33.8 °F 70% 29.94 in 10.0 mi WSW 6.9 mph - N/A   Overcast
2:55 AM 42.8 °F 38.0 °F 33.8 °F 70% 29.94 in 10.0 mi West 8.1 mph - N/A   Overcast
3:15 AM 42.8 °F 37.0 °F 35.6 °F 76% 29.94 in 10.0 mi West 10.4 mph - N/A   Overcast
3:35 AM 44.6 °F 38.8 °F 35.6 °F 71% 29.94 in 10.0 mi West 11.5 mph - N/A   Overcast
3:55 AM 44.6 °F 39.7 °F 35.6 °F 71% 29.93 in 10.0 mi WNW 9.2 mph - N/A   Overcast
4:15 AM 44.6 °F 40.2 °F 35.6 °F 71% 29.93 in 10.0 mi WNW 8.1 mph - N/A   Overcast
4:35 AM 46.4 °F 41.9 °F 35.6 °F 66% 29.93 in 9.0 mi NW 9.2 mph - N/A   Overcast
4:55 AM 44.6 °F 39.7 °F 37.4 °F 76% 29.93 in 10.0 mi NW 9.2 mph - N/A   Overcast
5:15 AM 46.4 °F 41.5 °F 37.4 °F 71% 29.93 in 10.0 mi NW 10.4 mph - N/A   Overcast
5:35 AM 46.4 °F 41.5 °F 37.4 °F 71% 29.93 in 10.0 mi NNW 10.4 mph - N/A   Overcast
5:55 AM 46.4 °F 41.1 °F 37.4 °F 71% 29.94 in 10.0 mi NNW 11.5 mph - N/A   Overcast
6:15 AM 46.4 °F 41.1 °F 37.4 °F 71% 29.94 in 10.0 mi North 11.5 mph - N/A   Overcast
6:35 AM 46.4 °F 41.1 °F 37.4 °F 71% 29.95 in 10.0 mi NNW 11.5 mph 18.4 mph N/A   Overcast
7:35 AM 42.8 °F 35.8 °F 37.4 °F 81% 29.96 in 10.0 mi North 13.8 mph 23.0 mph N/A   Overcast
7:55 AM 41.0 °F 34.7 °F 37.4 °F 87% 29.97 in 7.0 mi NNW 10.4 mph 18.4 mph N/A   Mostly Cloudy
8:35 AM 41.0 °F 33.9 °F 37.4 °F 87% 29.98 in 5.0 mi North 12.7 mph - N/A   Partly Cloudy
8:55 AM 41.0 °F 33.9 °F 37.4 °F 87% 29.98 in 5.0 mi North 12.7 mph 19.6 mph N/A   Clear
9:15 AM 41.0 °F 33.5 °F 37.4 °F 87% 29.98 in 6.0 mi North 13.8 mph 21.9 mph N/A   Clear
9:35 AM 41.0 °F 33.1 °F 37.4 °F 87% 29.98 in 6.0 mi North 15.0 mph 21.9 mph N/A   Haze
9:55 AM 42.8 °F 34.8 °F 37.4 °F 81% 29.99 in 7.0 mi North 17.3 mph - N/A   Mostly Cloudy
10:15 AM 42.8 °F 34.0 °F 37.4 °F 81% 30.00 in 8.0 mi North 20.7 mph 26.5 mph N/A   Overcast
10:35 AM 42.8 °F 35.8 °F 37.4 °F 81% 29.99 in 7.0 mi North 13.8 mph 24.2 mph N/A   Overcast
11:15 AM 42.8 °F 35.8 °F 37.4 °F 81% 30.01 in 9.0 mi North 13.8 mph 20.7 mph N/A   Overcast
11:35 AM 42.8 °F 34.8 °F 35.6 °F 76% 29.99 in 10.0 mi North 17.3 mph - N/A   Overcast
11:55 AM 44.6 °F 37.8 °F 33.8 °F 66% 29.99 in 10.0 mi North 15.0 mph 21.9 mph N/A   Mostly Cloudy
12:15 PM 46.4 °F 39.5 °F 33.8 °F 62% 30.00 in 10.0 mi North 17.3 mph - N/A   Clear
12:35 PM 46.4 °F 40.4 °F 33.8 °F 62% 29.99 in 10.0 mi North 13.8 mph 21.9 mph N/A   Clear
12:55 PM 46.4 °F 40.1 °F 32.0 °F 57% 29.99 in 10.0 mi North 15.0 mph 21.9 mph N/A   Clear
1:15 PM 46.4 °F 40.7 °F 32.0 °F 57% 29.98 in 10.0 mi North 12.7 mph 20.7 mph N/A   Clear
1:35 PM 48.2 °F - 32.0 °F 54% 29.98 in 10.0 mi NNW 16.1 mph - N/A   Clear
2:15 PM 48.2 °F - 30.2 °F 50% 29.96 in 10.0 mi NW 11.5 mph - N/A   Clear
2:35 PM 48.2 °F - 32.0 °F 54% 29.96 in 10.0 mi NW 15.0 mph 20.7 mph N/A   Clear
2:55 PM 48.2 °F - 30.2 °F 50% 29.96 in 10.0 mi NNW 13.8 mph - N/A   Clear
3:15 PM 48.2 °F - 30.2 °F 50% 29.95 in 10.0 mi North 15.0 mph - N/A   Clear
3:35 PM 48.2 °F - 30.2 °F 50% 29.95 in 10.0 mi NNW 13.8 mph 20.7 mph N/A   Clear
3:55 PM 48.2 °F - 30.2 °F 50% 29.96 in 10.0 mi North 16.1 mph - N/A   Clear
4:15 PM 48.2 °F - 30.2 °F 50% 29.96 in 10.0 mi NNW 13.8 mph 20.7 mph N/A   Clear
4:35 PM 46.4 °F 40.1 °F 30.2 °F 53% 29.96 in 10.0 mi NNW 15.0 mph - N/A   Clear
4:55 PM 46.4 °F 40.1 °F 30.2 °F 53% 29.96 in 10.0 mi NNW 15.0 mph - N/A   Clear
5:15 PM 44.6 °F 39.2 °F 30.2 °F 57% 29.97 in 10.0 mi NNW 10.4 mph 19.6 mph N/A   Clear
5:35 PM 44.6 °F 39.2 °F 30.2 °F 57% 29.96 in 10.0 mi NNW 10.4 mph 18.4 mph N/A   Clear
6:15 PM 41.0 °F 35.8 °F 28.4 °F 61% 29.96 in 10.0 mi North 8.1 mph - N/A   Clear
6:35 PM 41.0 °F 35.8 °F 28.4 °F 61% 29.97 in 10.0 mi North 8.1 mph - N/A   Clear
6:55 PM 39.2 °F 33.6 °F 28.4 °F 65% 29.98 in 10.0 mi NNW 8.1 mph - N/A   Clear
7:15 PM 39.2 °F 35.0 °F 28.4 °F 65% 29.98 in 10.0 mi North 5.8 mph - N/A   Clear
7:35 PM 35.6 °F 29.9 °F 26.6 °F 70% 29.98 in 10.0 mi North 6.9 mph - N/A   Clear
7:55 PM 37.4 °F 31.4 °F 26.6 °F 65% 29.98 in 10.0 mi NNW 8.1 mph - N/A   Clear
8:15 PM 35.6 °F 29.9 °F 26.6 °F 70% 29.99 in 10.0 mi NW 6.9 mph - N/A   Clear
8:35 PM 35.6 °F 29.9 °F 26.6 °F 70% 29.99 in 10.0 mi NNW 6.9 mph - N/A   Clear
8:55 PM 33.8 °F 27.7 °F 26.6 °F 75% 29.99 in 10.0 mi NW 6.9 mph - N/A   Clear
9:15 PM 33.8 °F 27.7 °F 26.6 °F 75% 30.00 in 10.0 mi NNW 6.9 mph - N/A   Clear
9:35 PM 33.8 °F 27.7 °F 26.6 °F 75% 30.00 in 10.0 mi NW 6.9 mph - N/A   Clear
9:55 PM 32.0 °F 25.6 °F 26.6 °F 80% 30.00 in 10.0 mi NW 6.9 mph - N/A   Clear
10:15 PM 32.0 °F 24.8 °F 26.6 °F 80% 30.01 in 10.0 mi NW 8.1 mph - N/A   Clear
10:35 PM 32.0 °F 26.4 °F 26.6 °F 80% 30.01 in 10.0 mi NNW 5.8 mph - N/A   Clear
10:55 PM 30.2 °F 24.3 °F 24.8 °F 80% 30.01 in 10.0 mi North 5.8 mph - N/A   Clear
11:15 PM 30.2 °F 24.3 °F 24.8 °F 80% 30.01 in 10.0 mi North 5.8 mph - N/A   Clear
11:35 PM 32.0 °F 26.4 °F 26.6 °F 80% 30.02 in 10.0 mi North 5.8 mph - N/A   Clear
11:55 PM 30.2 °F 22.6 °F 24.8 °F 80% 30.02 in 10.0 mi NNE 8.1 mph - N/A   Clear